www.pogodaiklimat.ru

Погода и климат >> Архив погоды >> Россия >> Красноярский край >> Красноярск


АРХИВ ПОГОДЫ в Красноярске

Время (UTC), дата Ветер
(напр.,м/с)
 
Видим.   Явления Облачность Т
(С)
Тd
(С)
f
(%)
Тe
(С)
Тes
(С)
Комфортность P
(гПа)
Po
(гПа)
Тmin
(С)
Tmax
(С)
R
(мм)
R24
(мм)
S
(см)
18 16.07 ЮЗ 1 4000 м 7 баллов +16.6 +15.0 90 +17 +17 по сезону 1006.7 974.7
21 16.07 ЮЗ 1 20 км 7 баллов +14.3 +12.7 90 +15 +15 по сезону 1006.9 974.7
00 17.07 штиль 0 20 км 8/4 2000 м
[Cb cap Ac trans Ci fib]
+17.4 +14.8 85 +17 +19 по сезону 1005.2 973.3 +14.3
03 17.07 В 1 20 км 9 баллов +20.6 +15.2 71 +25 +26 комфорт 1004.8 973.3
06 17.07 ЮЗ 2 20 км 10 баллов +22.5 +15.8 66 +27 +27 душно 1004.6 973.3
09 17.07 ЮЗ 3
{10}
20 км {ливн. осадки} 10/6 600 м
[Cb cap Ac As]
+20.3 +15.2 73 +23 +24 комфорт 1005.2 973.7
12 17.07 З 1 20 км {ливн. осадки} 9/3 600 м
[Cb cap Ac trans Cc]
+21.6 +14.7 65 +25 +26 комфорт 1005.3 974.0 +23.5 0.0
15 17.07 ЮЗ 1 20 км 6 баллов +17.9 +15.0 83 +19 +19 по сезону 1007.9 976.0
18 17.07 З 1 4000 м 10 баллов +17.2 +15.0 87 +18 +18 тепло 1006.6 974.7
21 17.07 штиль 0 20 км 7 баллов +16.3 +15.3 94 +16 +16 по сезону 1006.7 974.7
00 18.07 ЮЗ 2 50 км {ливн. осадки} 6/0 2000 м
[Ac trans Ci fib]
+19.5 +16.0 80 +22 +24 комфорт 1005.6 974.1 +15.3 0.3
03 18.07 Ю 2 50 км 4 балла +23.4 +14.1 56 +27 +33 душно 1005.9 974.7
06 18.07 Ю 2 50 км 4 балла +26.5 +12.9 43 +28 +37 жарко 1005.6 974.7
09 18.07 З 1 50 км 7 баллов +27.6 +14.2 44 +30 +33 жарко 1004.0 973.3
12 18.07 В 2 50 км 9/4 600 м
[Cu med, cong Ci sp]
+27.1 +14.9 47 +30 +30 душно 1003.6 972.8 +28.5
15 18.07 штиль 0 20 км 10 баллов +21.3 +16.3 73 +25 +25 комфорт 1006.1 974.7
18 18.07 ЮЗ 1 4000 м 6 баллов +19.1 +15.2 78 +22 +22 комфорт 1004.9 973.3
21 18.07 штиль 0 20 км 9 баллов +18.2 +15.1 82 +18 +18 тепло 1005.0 973.3
00 19.07 З 1 20 км 9/1 600 м
[Cb cap Ac trans Cc]
+21.6 +17.2 76 +26 +27 душно 1005.0 973.7 +17.8
03 19.07 ЮЗ 2 50 км 10 баллов +22.7 +16.7 69 +27 +27 душно 1006.0 974.7
06 19.07 ЮЗ 1 20 км слаб. ливневой дождь, в посл. час гроза 9 баллов +20.6 +19.1 91 +26 +28 душно 1006.2 974.7
09 19.07 СЗ 1 50 км 9 баллов +23.1 +18.4 75 +29 +30 очень
душно
1005.9 974.7
12 19.07 СВ 1 50 км {ливн. осадки} 9/5 600 м
[Cb cap Ac trans]
+22.5 +17.3 72 +27 +28 душно 1005.2 974.0 +24.7 10
15 19.07 штиль 0 50 км 10 баллов +19.9 +17.5 86 +22 +22 комфорт 1006.3 974.7
18 19.07 С 1 4000 м слаб. ливневой дождь 10 баллов +17.9 +16.1 89 +19 +19 тепло 1006.5 974.7
21 19.07 СВ 1 20 км 10 баллов +15.3 +14.8 97 +16 +16 по сезону 1006.8 974.7
00 20.07 С 1 20 км {ливн. осадки} 9/6 300 м
[Cb cap Ac trans]
+14.0 +13.1 94 +14 +15 прохладно 1007.0 974.7 +13.9 19
03 20.07 СВ 2 20 км 9 баллов +17.8 +12.3 70 +18 +19 прохладно 1006.6 974.7
06 20.07 СВ 2 4000 м дым 10 баллов +18.5 +11.3 63 +20 +20 прохладно 1006.5 974.7
09 20.07 СВ 2 4000 м дым 9 баллов +16.5 +9.7 64 +17 +18 очень
холодно
1008.1 976.0
12 20.07 С 1 4000 м дым 10/6 600 м
[Cb cap Ac trans Cs]
+13.9 +8.1 68 +14 +15 очень
холодно
1009.1 976.7 +19.0
15 20.07 З 1 4000 м дымка 10 баллов +9.3 +7.6 89 +9 +9 очень
холодно
1010.3 977.3
18 20.07 ЮЗ 1 н/о дымка 9 баллов +7.3 +6.2 93 +6 +6 очень
холодно
1010.5 977.3
21 20.07 штиль 0 4000 м дымка 9 баллов +7.0 +6.1 94 +6 +6 очень
холодно
1010.6 977.3
00 21.07 штиль 0 4000 м дымка 10/0
[Cs]
+8.3 +7.7 96 +7 +10 очень
холодно
1009.0 976.0 +6.2
03 21.07 В 1 4000 м дымка 9 баллов +12.4 +8.7 78 +12 +14 очень
холодно
1008.5 976.0
06 21.07 СВ 2 4000 м дым 10 баллов +16.2 +10.1 67 +16 +16 холодно 1008.1 976.0
09 21.07 В 2 4000 м гроза, ливневой дождь 10 баллов +17.1 +11.8 71 +17 +17 холодно 1006.6 974.7
12 21.07 штиль 0
{10}
10 км {гроза, ливн. осадки} 10/5 600 м
[Cb cap Ac As]
+13.3 +11.8 91 +13 +13 очень
холодно
1007.8 975.4 +18.2 8
15 21.07 штиль 0 10 км 10 баллов +11.9 +11.3 96 +11 +11 очень
холодно
1008.6 976.0
18 21.07 штиль 0 н/о дымка 10 баллов +11.5 +11.0 97 +11 +11 холодно 1008.6 976.0
21 21.07 Ю 1 4000 м дымка 10 баллов +9.8 +9.3 97 +9 +9 холодно 1007.5 974.7
00 22.07 штиль 0 4000 м дымка 10/6 600 м
[Cb cap Ac As]
+11.3 +10.9 97 +11 +11 холодно 1007.3 974.6 +9.3
03 22.07 В 1 10 км 10 баллов +14.7 +11.5 81 +15 +15 прохладно 1006.9 974.7
06 22.07 СВ 1 10 км 10 баллов +18.4 +15.1 81
09 22.07 СВ 1 10 км 10 баллов +19.1 +13.9 72 +21 +21 комфорт 1004.9 973.3
12 22.07 штиль 0 10 км 10/6 600 м
[Cb cap Ac trans Cs]
+17.9 +15.0 83 +18 +18 прохладно 1003.9 972.1 +19.3
15 22.07 ЮЗ 1 4000 м дымка 10 баллов +13.7 +13.1 96 +14 +14 холодно 1005.6 973.3
18 22.07 Ю 1 н/о дымка 10 баллов +13.9 +13.3 96 +14 +14 по сезону 1004.2 972.0
21 22.07 штиль 0 4000 м в посл. час ливневой дождь 10 баллов +13.5 +13.0 97 +13 +13 прохладно 1004.2 972.0
00 23.07 штиль 0 10 км {ливн. осадки} 10/4 600 м
[Cb cap Ac trans Cs]
+14.6 +13.5 93 +14 +15 по сезону 1003.7 971.5 +13.2 0.6
03 23.07 штиль 0 10 км 10 баллов +16.9 +11.8 72 +17 +17 прохладно 1003.9 972.0
06 23.07 В 1 10 км 9 баллов +19.2 +12.9 67 +22 +23 комфорт 1003.6 972.0
09 23.07 СВ 1 10 км 9 баллов +20.7 +13.2 62 +24 +25 комфорт 1004.8 973.3
12 23.07 штиль 0 10 км 10/0
[Cs]
+19.7 +14.2 71 +21 +23 комфорт 1003.6 972.1 +21.0

 

Местоположение метеостанции Красноярск (Красноярский край, Россия): широта 56.03 долгота 92.75 высота над уровнем моря 276 м.

В архиве по умолчанию представлена погода в Красноярске за последнюю неделю. Архивные данные за месяц целиком и за предыдущие месяцы, начиная с января 2011 года, Вы можете получить, выбрав интересующий диапазон дат из раскрывающегося списка и нажав кнопку "Ввод!".


*Определитесь, кто Вы:
робот инопланетянин человек

Внимание! Время в таблицах - всемирное. Для получения местного времени необходимо прибавить поправку, которая равна 7 ч.

Смотрите также архив погоды в соседних городах и на ближайших метеорологических станциях:

Погода в Минино (Красноярский край, Россия) (5 км)
Погода в Роевом Ручье (Красноярский край, Россия) (7 км)
Погода в Емельяново (Красноярский край, Россия) (22 км)
Погода в Шумихе (Красноярский край, Россия) (29 км)
Погода в Каче (Красноярский край, Россия) (36 км)
Погода в Погорельском Бору (Красноярский край, Россия) (40 км)
Погода в Железногорске (Красноярский край, Россия) (54 км)
Погода в Сухобузимском (Красноярский край, Россия) (62 км)
Погода в Кемчуге (Красноярский край, Россия) (68 км)
Погода в Шалинском (Красноярский край, Россия) (71 км)

Пояснения к столбцам:

Ветер - указаны скорость ветра в м/с - средняя за 10 мин, порывы в срок и между сроками (в фигурных скобках) и направление, откуда дует ветер: С - северный, СВ - северо-восточный, В - восточный, ЮВ - юго-восточный, Ю - южный, ЮЗ - юго-западный, З - западный, СЗ - северо-западный.
Видимость - горизонтальная дальность видимости в метрах или километрах. При видимости от 1 до 10 км при отсутствии осадков обычно наблюдается дымка, при ухудшении видимости до 1 км и менее - туман. В сухую погоду видимость может ухудшаться дымом, пылью или мглою.
Явления - указаны атмосферные явления, наблюдавшиеся в срок или в последний час перед сроком; фигурными скобками обозначены явления, наблюдавшиеся между сроками (за 1-3 часа до срока); квадратными скобками обозначены град или гололедные отложения с указанием их диаметра в мм.
Облачность - указаны через наклонную черту общая и нижняя облачность в баллах и высота нижней границы облаков в метрах; квадратными скобками обозначены формы облаков: Ci - перистые, Cs - перисто-слоистые, Cc - перисто-кучевые, Ac - высококучевые, As - высокослоистые, Sc - слоисто-кучевые, Ns - слоисто-дождевые, Cu - кучевые, Cb - кучево-дождевые. Подробнее классификацию облаков см. в Атласе облаков (PDF).
T - Температура воздуха - температура, измеренная на высоте 2 м над землей.
Td - Температура точки росы - температура, при понижении до которой содержащийся в воздухе водяной пар достигнет насыщения.
f - Относительная влажность воздуха - влажноcть воздуха, измеренная на высоте 2 м над землей.
Te - Эффективная температура - температура, которую ощущает одетый по сезону человек в тени. Характеристика душности погоды. При расчете учитывается влияние влажности воздуха и скорости ветра на теплоощущения человека.
Tes - Эффективная температура на солнце - температура, которую ощущает человек, с поправкой на солнечный нагрев. Характеристика знойности погоды. Зависит от высоты солнца над горизонтом, облачности и скорости ветра. Ночью, в пасмурную погоду, а также при ветре 12 м/с и более поправка равна нулю.
P - Атмосферное давление - приведенное к уровню моря атмосферное давление.
Po - Атмосферное давление - измеренное на уровне метеостанции атмосферное давление.
Tmin - Минимальная температура - минимум температуры воздуха на высоте 2 м над землей.
Tmax - Максимальная температура - максимум температуры воздуха на высоте 2 м над землей.
R - Количество осадков - Количество выпавших осадков за период времени, мм. При наведении курсора мыши на число - период времени, за который выпало указанное количество осадков.
R24 - Количество осадков - Количество выпавших осадков за 24 часа, мм.
S - Снежный покров - Высота снежного покрова, см. При наведении курсора мыши на число - состояние снежного покрова и степень покрытия местности в баллах.